Find Starlink 1234

NORAD ID: 45190 Int'l Des: 2020-012 Owner: SPXS Country: US Constellation: starlink operational
LEOCIRCULAR

实时位置

正在加载3D地球...

关于 Starlink 1234

正在加载描述...

即将过境

Passes for default location (London). Set your location on the main map for personalized predictions.

高度历史

Loading altitude history...

两行轨道根数

1 45190U 20012N 26125.04231144 .00065938 00000-0 53435-3 0 9993
2 45190 53.0411 47.9867 0008562 109.3999 250.7943 15.70131197344711
Epoch: May 5, 2026 • Age: 27 hours

当前状态

高度 374.0 km
速度 7.68 km/s
星下点 -33.70°S, 83.49°E
发射日期 Feb 17, 2020
运行时间 6.2 years
类型 internet

技术详情

分类 Payload
质量 260.00 kg
干质量 248.00 kg
总质量 260.00 kg
长度 0.20 m
直径 2.80 m
跨度 9.00 m
形状 Box + pan
制造商 SPXS
平台类型 Starlink
阶段状态 In Orbit
所有者/国家 SPXS/US

Most Searched